This demonstration page uses our WeatherBlox Daily Observations layout. Learn more.

Left ArrowRight Arrow

Hourly Observations for April 16, 2021

Temp ( °F °C ) Dew Point ( °F °C ) Humidity (%) Winds ( mph kmh ) Pressure ( in mb ) Visibility ( mi km ) Precip ( " mm )
12:51 am 00:51 Clear 59 15 13 -10.6 16 16 NNW 8 13 29.78 1009 10 16.0934 0 0
1:51 am 01:51 Clear 57 13.9 13 -10.6 17 17 NW 8 13 29.78 1008 10 16.0934 0 0
2:51 am 02:51 Clear 56 13.3 13 -10.6 18 18 NW 8 13 29.77 1008 10 16.0934 0 0
3:51 am 03:51 Clear 55 12.8 13 -10.6 19 19 N 9 15 29.77 1008 10 16.0934 0 0
4:51 am 04:51 Clear 52 11.1 13 -10.6 21 21 N 6 9 29.78 1008 10 16.0934 0 0
5:51 am 05:51 Sunny 51 10.6 14 -10 23 23 S 3 6 29.79 1009 10 16.0934 0 0
6:51 am 06:51 Sunny 54 12.2 15 -9.4 21 21 WSW 7 11 29.81 1010 10 16.0934 0 0
7:51 am 07:51 Sunny 56 13.3 14 -10 19 19 WNW 5 7 29.83 1010 10 16.0934 0 0
8:51 am 08:51 Sunny 63 17.2 14 -10 15 15 Calm 29.82 1010 10 16.0934 0 0
9:51 am 09:51 Sunny 66 18.9 14 -10 13 13 SW 5 7 29.81 1010 10 16.0934 0 0
10:51 am 10:51 Sunny 71 21.7 14 -10 11 11 VRB 6 9 29.79 1009 10 16.0934 0 0
11:51 am 11:51 Sunny 71 21.7 13 -10.6 10 10 VRB 3 6 29.78 1008 10 16.0934 0 0
12:51 pm 12:51 Sunny 74 23.3 13 -10.6 9 9 W 10 17 29.75 1007 10 16.0934 0 0
1:51 pm 13:51 Sunny 74 23.3 13 -10.6 9 9 NNW 6 9 29.74 1007 10 16.0934 0 0
2:51 pm 14:51 Sunny 74 23.3 12 -11.1 9 9 NNW 7 11 29.72 1006 10 16.0934 0 0
3:51 pm 15:51 Mostly Sunny 74 23.3 12 -11.1 9 9 NW 12 19 29.72 1006 10 16.0934 0 0
4:51 pm 16:51 Sunny 75 23.9 10 -12.2 8 8 WNW 16 26 29.72 1006 10 16.0934 0 0
5:51 pm 17:51 Sunny 73 22.8 9 -12.8 8 8 NNW 9 15 29.73 1007 10 16.0934 0 0
6:51 pm 18:51 Clear 71 21.7 12 -11.1 10 10 WNW 14 22 29.74 1007 10 16.0934 0 0
7:51 pm 19:51 Clear 65 18.3 11 -11.7 12 12 NW 9 15 29.77 1008 10 16.0934 0 0
8:51 pm 20:51 Clear 64 17.8 9 -12.8 11 11 NW 12 19 29.78 1009 10 16.0934 0 0
9:51 pm 21:51 Clear 61 16.1 10 -12.2 13 13 NNW 8 13 29.78 1009 10 16.0934 0 0
10:51 pm 22:51 Clear 59 15 9 -12.8 13 13 NW 8 13 29.78 1009 10 16.0934 0 0
11:51 pm 23:51 Clear 56 13.3 9 -12.8 15 15 NNW 5 7 29.8 1009 10 16.0934 0 0

Powered by AerisWeather